This demonstration page uses our WeatherBlox Daily Observations layout. Learn more.

Left ArrowRight Arrow

41.55636, -103.73856

Hourly Observations for December 15, 2015

Temp ( °F °C ) Dew Point ( °F °C ) Humidity (%) Winds ( mph kmh ) Pressure ( in mb ) Visibility ( mi km ) Precip ( " mm )
12:04 am 00:04 Cloudy 25 -4 21 -6 86 86 NE 14 22 29.80 1009 10 16 N/A
12:23 am 00:23 Cloudy 25 -3.9 22 -5.6 88 88 NE 15 24 29.80 1009 10 16 N/A
12:30 am 00:30 Cloudy 25 -4 21 -6 86 86 NE 14 22 29.80 1009 10 16 N/A
12:53 am 00:53 Cloudy 24 -4.4 21 -6.1 88 88 NE 15 24 29.70 1006 10 16 N/A
1:53 am 01:53 Cloudy 22 -5.6 19 -7.2 89 89 NE 17 28 29.68 1005 10 16 N/A
2:17 am 02:17 Cloudy with Light Snow 22 -5.6 19 -7.2 89 89 NE 15 24 29.83 1010 2 3 0.01 0.25
2:29 am 02:29 Cloudy with Light Snow 22 -5.6 18 -7.8 85 85 NE 15 24 29.83 1010 3 5 0.01 0.25
2:53 am 02:53 Cloudy 22 -5.6 18 -7.8 85 85 NE 18 30 29.68 1005 10 16 0.01 0.25
3:53 am 03:53 Cloudy 22 -5.6 18 -7.8 85 85 NE 22 35 29.66 1005 10 16 N/A
4:30 am 04:30 Cloudy 23 -5 18 -8 80 80 NNE 23 37 29.74 1007 10 16 N/A
4:53 am 04:53 Cloudy 23 -5 19 -7.2 85 85 NE 22 35 29.67 1005 10 16 N/A
5:33 am 05:33 Cloudy 23 -5 20 -6.7 88 88 NNE 22 35 29.77 1008 10 16 N/A
5:44 am 05:44 Cloudy 25 -4 19 -7 80 80 NE 20 31 29.77 1008 10 16 N/A
5:53 am 05:53 Cloudy 24 -4.4 20 -6.7 84 84 NNE 22 35 29.68 1005 10 16 N/A
6:24 am 06:24 Cloudy with Light Snow 25 -4 19 -7 80 80 NNE 16 26 29.77 1008 2 3 N/A
6:36 am 06:36 Mostly Cloudy with Snow 23 -5 19 -7.2 85 85 N 21 33 29.77 1008 1 1 N/A
6:53 am 06:53 Mostly Cloudy with Light Snow 22 -5.6 19 -7.2 89 89 NNE 13 20 29.71 1006 1 1 0.02 0.51
7:00 am 07:00 Cloudy with Light Snow 21 -6 19 -7 93 93 NNE 10 17 29.83 1010 2 3 N/A
7:18 am 07:18 Cloudy with Light Snow 23 -5 19 -7 86 86 NNE 15 24 29.83 1010 1 2 N/A
7:53 am 07:53 Cloudy with Light Snow 23 -5 18 -7.8 81 81 NNE 17 28 29.71 1006 1 2 0.02 0.51
8:20 am 08:20 Cloudy with Light Snow 21 -6 18 -8 86 86 N 14 22 29.83 1010 1 2 N/A
8:53 am 08:53 Cloudy with Light Snow 22 -5.6 17 -8.3 82 82 N 17 28 29.71 1006 2 2 N/A
9:14 am 09:14 Cloudy with Light Snow 21 -6 18 -8 86 86 NNE 17 28 29.83 1010 3 4 N/A
9:25 am 09:25 Cloudy with Light Snow 22 -5.6 17 -8.3 82 82 N 16 26 29.80 1009 1 2 N/A
9:34 am 09:34 Windy with Snow Likely 21 -6 18 -8 86 86 NNE 20 31 29.80 1009 1 2 N/A
9:44 am 09:44 Cloudy with Light Snow 21 -6 18 -8 86 86 NNE 17 28 29.83 1010 1 1 N/A
9:53 am 09:53 Cloudy with Light Snow 22 -5.6 17 -8.3 82 82 N 16 26 29.72 1006 1 2 N/A
10:00 am 10:00 Mostly Cloudy with Light Snow 21 -6 18 -8 86 86 N 16 26 29.83 1010 1 1 N/A
10:44 am 10:44 Mostly Cloudy with Snow 21 -6 18 -8 86 86 N 9 15 29.85 1011 0 0 N/A
10:53 am 10:53 Mostly Cloudy with Heavy Snow 21 -6.1 17 -8.3 85 85 N 6 9 29.75 1008 0 0 0.03 0.76
11:42 am 11:42 Mostly Cloudy with Heavy Snow 21 -6 18 -8 86 86 N 13 20 29.83 1010 0 0 N/A
11:53 am 11:53 Mostly Cloudy with Heavy Snow 21 -6.1 17 -8.3 85 85 NNE 14 22 29.74 1007 5 8 0.09 2.29
12:43 pm 12:43 Mostly Cloudy with Freezing Fog 21 -6.1 17 -8.3 85 85 N 12 19 29.83 1010 0 0 0.09 2.29
12:53 pm 12:53 Mostly Cloudy with Snow 21 -6.1 17 -8.3 85 85 N 14 22 29.72 1007 0 0 0.12 3.05
1:53 pm 13:53 Mostly Cloudy with Freezing Fog 20 -6.7 16 -8.9 85 85 N 21 33 29.73 1007 0 0 0.04 1.02
2:37 pm 14:37 Mostly Cloudy with Freezing Fog 20 -6.7 16 -8.9 85 85 N 15 24 29.85 1011 1 1 0.01 0.25
2:53 pm 14:53 Mostly Cloudy with Freezing Fog 20 -6.7 16 -8.9 85 85 N 18 30 29.74 1007 0 0 0.01 0.25
3:16 pm 15:16 Mostly Cloudy with Freezing Fog 20 -6.7 16 -8.9 85 85 N 17 28 29.85 1011 1 1 N/A
3:27 pm 15:27 Mostly Cloudy with Freezing Fog 20 -6.7 16 -8.9 85 85 N 17 28 29.85 1011 1 1 N/A
3:53 pm 15:53 Mostly Cloudy with Mist and Fog 20 -6.7 16 -8.9 85 85 N 14 22 29.75 1008 1 1 N/A
4:20 pm 16:20 Cloudy with Mist and Fog 19 -7 16 -9 86 86 NNW 13 20 29.88 1012 1 2 N/A
4:34 pm 16:34 Cloudy with Mist and Fog 19 -7 16 -9 86 86 NW 10 17 29.88 1012 2 3 N/A
4:53 pm 16:53 Cloudy with Mist and Fog 20 -6.7 16 -8.9 85 85 NW 10 17 29.76 1008 2 3 N/A
5:34 pm 17:34 Cloudy with Mist and Fog 19 -7 18 -8 93 93 NW 12 19 29.88 1012 2 2 N/A
5:53 pm 17:53 Mostly Cloudy with Mist and Fog 20 -6.7 17 -8.3 89 89 NW 12 19 29.77 1008 1 2 N/A
6:53 pm 18:53 Cloudy with Mist and Fog 21 -6.1 18 -7.8 88 88 NW 12 19 29.78 1009 2 2 N/A
7:53 pm 19:53 Cloudy with Light Snow 21 -6.1 18 -7.8 88 88 NW 8 13 29.78 1008 2 3 0.02 0.51
8:01 pm 20:01 Cloudy with Light Snow 22 -5.6 19 -7.2 89 89 NNW 14 22 29.85 1011 3 4 N/A
8:10 pm 20:10 Cloudy with Light Snow 25 -4 19 -7 80 80 NNW 17 28 29.83 1010 3 5 N/A
8:53 pm 20:53 Windy with Snow Likely 24 -4.4 19 -7.2 81 81 NW 25 41 29.78 1008 2 3 N/A
9:44 pm 21:44 Windy with Snow Likely 25 -4 19 -7 80 80 NW 23 37 29.85 1011 3 5 N/A
9:53 pm 21:53 Windy with Snow Likely 23 -5 19 -7.2 85 85 NW 23 37 29.78 1009 3 4 N/A
10:44 pm 22:44 Windy with Snow Likely 23 -5 19 -7 86 86 WNW 20 31 29.88 1012 3 5 N/A
10:53 pm 22:53 Windy with Snow Likely 23 -5 19 -7.2 85 85 WNW 20 31 29.80 1009 3 4 N/A
11:16 pm 23:16 Windy with Snow Likely 23 -5 19 -7 86 86 WNW 21 33 29.88 1012 2 3 N/A
11:24 pm 23:24 Windy with Snow Likely 23 -5 19 -7 86 86 NW 22 35 29.88 1012 3 4 N/A
11:35 pm 23:35 Windy with Snow Likely 24 -4.4 19 -7.2 81 81 NW 20 31 29.85 1011 3 5 N/A
11:53 pm 23:53 Windy with Snow Likely 24 -4.4 19 -7.2 81 81 NW 22 35 29.80 1009 3 4 N/A

Powered by AerisWeather